TimeEDT,TemperatureF,Dew PointF,Humidity,Sea Level PressureIn,VisibilityMPH,Wind Direction,Wind SpeedMPH,Gust SpeedMPH,PrecipitationIn,Events,Conditions,WindDirDegrees,DateUTC
12:53 AM,73.0,70.0,90,30.01,10.0,ESE,5.8,-,N/A,,Clear,120,2013-04-19 04:53:00
1:53 AM,72.0,69.1,91,29.99,10.0,East,4.6,-,N/A,,Clear,100,2013-04-19 05:53:00
2:53 AM,71.1,69.1,93,29.99,10.0,Calm,Calm,-,N/A,,Clear,0,2013-04-19 06:53:00
3:53 AM,71.1,69.1,93,29.99,10.0,SE,3.5,-,N/A,,Clear,140,2013-04-19 07:53:00
4:53 AM,71.1,69.1,93,29.99,10.0,ESE,3.5,-,N/A,,Clear,120,2013-04-19 08:53:00
5:53 AM,71.1,69.1,93,29.98,10.0,SE,4.6,-,N/A,,Clear,130,2013-04-19 09:53:00
6:53 AM,72.0,70.0,93,29.99,10.0,SE,5.8,-,N/A,,Clear,140,2013-04-19 10:53:00
7:53 AM,73.9,71.1,91,30.01,10.0,SSE,6.9,-,N/A,,Clear,150,2013-04-19 11:53:00
8:53 AM,78.1,72.0,81,30.02,10.0,SSE,10.4,-,N/A,,Clear,150,2013-04-19 12:53:00
9:53 AM,81.0,72.0,74,30.03,10.0,South,8.1,-,N/A,,Clear,170,2013-04-19 13:53:00
10:53 AM,84.0,70.0,63,30.02,10.0,South,9.2,20.7,N/A,,Scattered Clouds,170,2013-04-19 14:53:00
11:53 AM,84.0,72.0,67,30.02,10.0,South,9.2,-,N/A,,Partly Cloudy,180,2013-04-19 15:53:00
12:53 PM,88.0,70.0,55,30.01,10.0,South,9.2,17.3,N/A,,Scattered Clouds,180,2013-04-19 16:53:00
1:53 PM,87.1,70.0,57,30.00,10.0,SSW,10.4,-,N/A,,Mostly Cloudy,210,2013-04-19 17:53:00
2:53 PM,88.0,70.0,55,29.98,10.0,SSW,10.4,-,N/A,,Scattered Clouds,200,2013-04-19 18:53:00
3:53 PM,87.1,69.1,55,29.96,10.0,SSW,13.8,19.6,N/A,,Clear,210,2013-04-19 19:53:00
4:53 PM,87.1,66.9,51,29.94,10.0,SSW,15.0,21.9,N/A,,Clear,200,2013-04-19 20:53:00
5:53 PM,84.0,69.1,61,29.95,10.0,South,13.8,-,N/A,,Clear,190,2013-04-19 21:53:00
6:53 PM,82.0,72.0,71,29.97,10.0,South,8.1,-,N/A,,Scattered Clouds,170,2013-04-19 22:53:00
7:22 PM,82.4,71.6,70,29.96,10.0,South,8.1,-,N/A,,Overcast,180,2013-04-19 23:22:00
7:53 PM,81.0,72.0,74,29.98,10.0,South,8.1,-,N/A,,Overcast,190,2013-04-19 23:53:00
8:53 PM,79.0,72.0,79,30.01,10.0,Calm,Calm,-,N/A,,Mostly Cloudy,0,2013-04-20 00:53:00
9:09 PM,78.8,73.4,83,30.01,10.0,South,3.5,-,N/A,,Scattered Clouds,180,2013-04-20 01:09:00
9:17 PM,78.8,71.6,78,30.01,10.0,Variable,3.5,-,N/A,,Mostly Cloudy,0,2013-04-20 01:17:00
9:33 PM,78.8,71.6,78,30.02,10.0,SE,3.5,-,N/A,,Scattered Clouds,140,2013-04-20 01:33:00
9:53 PM,78.1,71.1,79,30.02,10.0,SSE,4.6,-,N/A,,Clear,160,2013-04-20 01:53:00
10:53 PM,75.9,71.1,85,30.02,10.0,Calm,Calm,-,N/A,,Clear,0,2013-04-20 02:53:00
11:53 PM,75.0,71.1,87,30.03,10.0,Calm,Calm,-,N/A,,Mostly Cloudy,0,2013-04-20 03:53:00